Погода в Ницце

Франция     43°42′57″N   7°16′56″E
темп.,
°C
ветер,
м/с
пор.,
м/с
влажн.,
%
обл.,
%
осадки,
мм/ч
давл.,
гПа
погр.,
м
25 июня, сб
сб2523:00+20ссз35640 0.1 1012103
02:00+19ссз346271 0.1 101282
05:00+18ссз34580 0.0 101178
08:00+21всв12530 0.0 1013236
11:00+25ююв33460 0.0 1013960
14:00+26ю44450 0.0 1013756
17:00+26ю45470 0.0 1013952
20:00+24ю21480 0.0 1013328
26 июня, вс
вс2623:00+21с22630 0.0 101446
02:00+20ссз23575 0.0 101452
05:00+20ссз33546 0.0 101361
08:00+23с01464 0.0 1014170
11:00+26юв334282 0.0 1013710
14:00+27вюв234993 0.0 1013692
17:00+28вюв344757 0.0 1012577
20:00+27вюв12477 0.0 1011157
27 июня, пн
пн2723:00+24ссз22565 0.0 101246
02:00+23ссз34540 0.0 101284
05:00+22ссз23530 0.0 101256
08:00+25ссз11460 0.0 1013160
11:00+28юв33440 0.0 1013690
14:00+29юв33464 0.0 1014654
17:00+28ююв23508 0.0 1014501
20:00+27ю11516 0.0 1013209
28 июня, вт
вт2823:00+24с115851 0.0 101418
02:00+22сз1161100 0.0 101412
05:00+22с4466100 0.0 1015104
08:00+23зсз2262100 0.3 101345
11:00+26с2352100 2.1 1013314
14:00+24в7964100 2.2 1016747
17:00+28ю4443100 0.3 1014925
20:00+22сз455622 0.3 1015239
29 июня, ср
ср2923:00+21ссз23584 0.0 101579
02:00+20ссз33560 0.0 101558
05:00+20ссз33560 0.0 101561
08:00+23сз22460 0.0 1014142
11:00+26ююв32400 0.0 1013765
14:00+27ююв32553 0.0 1013734
17:00+25ююв32631 0.0 1012592
20:00+24ююв11640 0.0 1011373